Flag for U.S.A. Weather past 2 weeks in Youngstown, Ohio, U.S.A.

Now
15 °F

Light snow. Overcast.


Feels Like: 0 °F
Forecast: 10 / 29 °F
Wind: 15 mph from Northwest

Location: Youngstown-Warren Regional Airport

Current Time: Jan 30, 2015 at 3:20:19 PM

Latest Report: Jan 30, 2015 at 2:51 PM


Visibility: 1 mi

Pressure: 30.36 "Hg

Humidity: 74%

Dew point: 8 °F

Location of YoungstownLocation

Historic Weather in Youngstown — Graph

°F

Youngstown temperature yesterday

Maximum temperature yesterday: 36 °F (at 3:51 PM)
Minimum temperature yesterday: 21 °F (at 12:51 AM)
Average temperature yesterday: 29 °F

Past Weeks' High & Low Weather Summary

 TemperatureHumidityPressure
High46 °F (Jan 18, 1:51 AM)96% (Jan 21, 12:51 PM)30.45 "Hg (Jan 21, 12:51 PM)
Low0 °F (Jan 28, 4:51 AM)29% (Jan 28, 3:51 PM)29.59 "Hg (Jan 24, 2:51 PM)
Average26 °F78%30.01 "Hg
* Reported Jan 15 1:51 PM — Jan 30 1:51 PM, Youngstown, Weather by CustomWeather, © 2014

Note: Actual official high and low records may vary slightly from our data, if they occured in-between our weather recording intervals... More about our weather records

Advertising

Youngstown weather history for previous 24 hours

 ConditionsComfort  
Time TempWeatherWind HumidityBarometerVisibility
1:51 PM
Jan 30
15 °FLight snow. Overcast.16 mph77%30.33 "Hg1 mi
12:51 PM16 °FLight snow. Overcast.14 mph74%30.32 "Hg1 mi
11:51 AM15 °FLight snow. Mostly cloudy.17 mph77%30.32 "Hg1 mi
10:51 AM16 °FLight snow. Mostly cloudy.24 mph80%30.30 "Hg1 mi
9:51 AM17 °FLight snow. Mostly cloudy.17 mph76%30.26 "Hg1 mi
8:51 AM17 °FLight snow. Mostly cloudy.17 mph83%30.23 "Hg1 mi
7:56 AM19 °FLight snow. Mostly cloudy.17 mph85%30.16 "Hg1 mi
6:51 AM21 °FLight snow. Mostly cloudy.21 mph81%30.16 "Hg7 mi
5:51 AM22 °FLight snow. Ice fog.15 mph89%30.13 "Hg4 mi
4:51 AM24 °FLight snow. Ice fog.15 mph84%30.09 "Hg1 mi
3:51 AM26 °FLight snow. Ice fog.14 mph92%30.05 "Hg1 mi
2:51 AM28 °FLight snow. Ice fog.15 mph85%30.03 "Hg6 mi
1:51 AM30 °FLight snow. Ice fog.12 mph89%30.01 "Hg1 mi
12:51 AM30 °FLight snow. Ice fog.12 mph89%30.00 "Hg2 mi
11:51 PM
Jan 29
29 °FLight freezing rain. Ice fog.9 mph93%29.99 "Hg2 mi
10:51 PM29 °FLight snow. Mostly cloudy.13 mph85%29.98 "Hg7 mi
9:51 PM30 °FLight snow. Mostly cloudy.10 mph89%29.95 "Hg8 mi
9:01 PM30 °FLight snow. Ice fog.13 mph92%29.88 "Hg2 mi
7:54 PM32 °FLight snow. Ice fog.14 mph96%29.83 "Hg1 mi
6:51 PM36 °FSleet. Fog.14 mph92%29.81 "Hg2 mi
5:51 PM35 °FSleet. Fog.8 mph96%29.79 "Hg1 mi
5:01 PM35 °FDrizzle. Fog.7 mph92%29.74 "Hg2 mi
3:51 PM36 °FDrizzle. Overcast.10 mph85%29.78 "Hg5 mi
Weather by CustomWeather, © 2014

See weather overviewHow to use our weather pages